www.pogodaiklimat.ru

Погода и климат >> Архив погоды >> Россия >> город Севастополь >> Севастополь


АРХИВ ПОГОДЫ в Севастополе

Время (UTC), дата Ветер
(напр.,м/с)
 
Видим.   Явления Облачность Т
(С)
Тd
(С)
f
(%)
Тe
(С)
Тes
(С)
Комфортность P
(гПа)
Po
(гПа)
Тmin
(С)
Tmax
(С)
R
(мм)
R24
(мм)
S
(см)
21 11.07 В 2 20 км ясно +17.0 +13.3 79 +17 +17 холодно 1010.0 1009.3
00 12.07 В 2 20 км ясно +15.3 +13.8 91 +15 +15 холодно 1010.0 1009.3
03 12.07 В 2 20 км 3/3 600 м
[Cu med, cong]
+16.5 +12.5 77 +17 +17 холодно 1008.5 1008.0 +15.5
06 12.07 В 2
{10}
50 км в посл. час гроза {ливн. осадки} 9/8 600 м
[Cb cap Ac cuf]
+19.3 +11.6 61 +21 +22 комфорт 1010.0 1009.3 +15.0 3
09 12.07 СЗ 3 20 км 8/5 600 м
[Cb cap Ac cast]
+21.4 +11.1 52 +23 +25 комфорт 1010.0 1009.3
12 12.07 З 7 20 км 10/10 600 м
[Cb cap]
+21.6 +14.2 63 +25 +25 комфорт 1011.4 1010.7
15 12.07 В 4 20 км гроза без осадков {ливн. осадки} 10/10 600 м
[Cb cap]
+18.7 +13.6 72 +19 +19 очень
холодно
1009.9 1009.4 3
18 12.07 СВ 3
{11}
4000 м гроза, ливневой дождь 10/10 600 м
[Cb cap]
+15.7 +13.7 88 +15 +15 очень
холодно
1011.0 1010.5 +23.0 15
21 12.07 В 2 20 км гроза без осадков {ливн. осадки} 8/8 600 м
[Cb cap]
+15.0 +14.0 94 +15 +15 очень
холодно
1012.7 1012.0
00 13.07 ЮВ 1 20 км в посл. час гроза {ливн. осадки} 6/6 600 м
[Cb cap]
+14.9 +12.9 88 +15 +15 холодно 1010.5 1010.0
03 13.07 ЮВ 2 4000 м слаб. ливневой дождь 8/6 600 м
[Cb cap Ac cast]
+15.9 +13.6 86 +16 +16 холодно 1010.1 1009.6 +14.0 16
06 13.07 В 3 20 км {ливн. осадки} 4/4 600 м
[Cu med, cong]
+20.1 +16.3 79 +23 +29 комфорт 1012.7 1012.0 +13.7 3
09 13.07 Ю 4
{11}
20 км гроза без осадков {ливн. осадки} 8/8 600 м
[Cb cap]
+17.5 +14.2 81 +17 +20 очень
холодно
1011.6 1011.1
12 13.07 ЮЗ 1 20 км {гроза, ливн. осадки} 6/6 600 м
[Cu med, cong]
+23.3 +16.6 66 +28 +35 душно 1011.1 1010.6
15 13.07 З 2 20 км 3/3 600 м
[Cu med, cong]
+23.7 +15.6 60 +27 +29 жарко 1010.9 1010.4 3
18 13.07 З 1 20 км 3/0
[Ac cast]
+21.1 +15.6 71 +24 +24 комфорт 1011.1 1010.6 +24.2 3
21 13.07 В 2 20 км ясно +17.0 +15.3 90 +17 +17 холодно 1012.7 1012.0
00 14.07 В 3 20 км ясно +16.0 +14.9 93 +15 +15 холодно 1011.4 1010.7
03 14.07 СВ 1 20 км 3/0
[Ac cast]
+15.9 +13.9 88 +17 +17 холодно 1009.9 1009.4 +15.2
06 14.07 СВ 2 20 км 4/0
[Ac cast]
+22.1 +15.2 65 +26 +32 душно 1009.8 1009.3 +15.0
09 14.07 З 4 20 км 8/3 600 м
[Cu med, cong Ci fib]
+22.8 +14.4 59 +26 +30 жарко 1010.0 1009.3
12 14.07 ЮЗ 4 20 км 6/3 600 м
[Cu med, cong Ci fib]
+26.2 +14.3 48 +29 +33 жарко 1008.7 1008.0
15 14.07 ЮЗ 3 20 км 9/5 600 м
[Cu med, cong Ci fib]
+26.2 +13.7 46 +28 +29 жарко 1008.7 1008.0
18 14.07 ЮВ 4 20 км 8/3 600 м
[Cu med, cong Ac lent Ci fib]
+21.1 +15.9 72 +24 +24 комфорт 1007.1 1006.6 +24.1
21 14.07 В 3 20 км 9/0
[Ci fib]
+19.7 +16.3 81 +22 +22 комфорт 1008.7 1008.0
00 15.07 В 3 20 км 8/0
[Ci fib]
+18.0 +16.5 91 +18 +18 прохладно 1006.0 1005.3
03 15.07 СВ 1 20 км 9/0
[Ac lent Ci fib]
+17.8 +15.7 88 +19 +19 прохладно 1005.3 1004.8 +17.6
06 15.07 штиль 0 20 км 10/0
[Ac und]
+20.9 +16.1 74 +24 +28 комфорт 1005.4 1004.9 +17.6
09 15.07 СЗ 3 20 км 10/3 600 м
[Cu med, cong As trans]
+22.7 +16.0 66 +27 +27 душно 1006.0 1005.3
12 15.07 З 3 20 км гроза, ливневой дождь 10/8 600 м
[Cb cap Ac cuf]
+23.6 +17.3 68 +27 +28 жарко 1004.8 1004.3
15 15.07 С 5
{10}
4000 м слаб. ливневой дождь, в посл. час гроза 10/10 300 м
[Cb cap]
+18.9 +17.2 90 +20 +20 холодно 1006.7 1006.2 12
18 15.07 В 3 20 км {гроза, ливн. осадки} 10/10 600 м
[Cb cap]
+18.5 +16.7 89 +19 +19 холодно 1007.1 1006.6 +25.6 13
21 15.07 В 2 20 км 8/3 600 м
[Cb cap Cc]
+17.3 +16.8 97 +18 +18 прохладно 1008.7 1008.0
00 16.07 В 1 20 км 6/0
[Ci fib]
+16.7 +16.2 97 +18 +18 прохладно 1008.7 1008.0
03 16.07 СЗ 4 20 км 10/4 600 м
[Cb cap Ac cast Ci]
+21.5 +18.6 84 +26 +26 душно 1007.0 1006.5 +17.3 2
06 16.07 Ю 1 20 км 5/0
[Ci fib]
+21.7 +18.7 83 +27 +36 душно 1007.7 1007.2 +17.3
09 16.07 СЗ 4 20 км 6/6 600 м
[Cu med, cong Ac cast]
+22.2 +17.3 74 +27 +34 душно 1010.0 1009.3
12 16.07 З 3 20 км 3/3 600 м
[Cu med, cong]
+24.4 +17.6 66 +28 +38 душно 1010.0 1009.3
15 16.07 СЗ 3 20 км 4/4 600 м
[Cu med, cong]
+24.3 +15.8 59 +27 +30 жарко 1010.0 1009.3
18 16.07 СЗ 3 20 км 3/0
[Ac cast]
+22.1 +17.4 75 +27 +27 душно 1009.3 1008.8 +24.9
21 16.07 В 1 20 км ясно +18.8 +17.6 93 +21 +21 комфорт 1011.4 1010.7
00 17.07 В 2 20 км ясно +17.0 +16.7 98 +17 +17 прохладно 1010.0 1009.3
03 17.07 СВ 2 20 км 3/0
[Ac cast]
+17.7 +16.2 91 +18 +18 холодно 1008.8 1008.3 +17.1
06 17.07 СВ 3 20 км 6/0
[Ac cast Ci fib]
+22.5 +17.2 72 +27 +31 душно 1008.7 1008.2 +17.1
09 17.07 СЗ 4 50 км 5/3 600 м
[Cu med, cong Ci fib]
+23.7 +18.2 71 +28 +36 душно 1008.5 1008.0
12 17.07 СЗ 4 50 км 5/3 600 м
[Cb calv Ci fib]
+24.2 +17.2 65 +28 +36 душно 1008.7 1008.0
15 17.07 СЗ 2 50 км 4/3 600 м
[Cu med, cong Ci fib]
+25.7 +17.3 60 +30 +33 душно 1008.7 1008.0
18 17.07 СЗ 2 20 км 4/4 600 м
[Cu med, cong]
+23.0 +19.9 83 +30 +30 очень
душно
1008.0 1007.5 +25.5
21 17.07 В 2 20 км 3/0
[Ci fib]
+19.8 +17.9 89 +23 +23 комфорт 1010.0 1009.3
00 18.07 В 2 20 км 3/0
[Ci fib]
+18.2 +15.4 84 +19 +19 по сезону 1008.7 1008.0
03 18.07 С 3 20 км 3/0
[Ac lent]
+19.6 +17.6 88 +22 +22 комфорт 1008.5 1008.0 +19.1
06 18.07 В 1 20 км ясно +23.0 +15.6 63 +27 +37 душно 1010.0 1009.3 +17.1
09 18.07 С 4 20 км 2 балла +24.3 +16.5 62 +28 +38 душно 1011.4 1010.7
12 18.07 З 2 20 км 4/4 600 м
[Cb cap]
+24.9 +19.7 73 +30 +42 душно 1011.4 1010.7
15 18.07 СЗ 4 20 км 4 балла +25.5 +18.2 64 +30 +31 душно 1012.7 1012.0
18 18.07 СЗ 6 20 км 4/0
[Ac cast]
+23.4 +19.7 80 +30 +30 очень
душно
1012.5 1012.0 +26.2

 

Местоположение метеостанции Севастополь (город Севастополь, Россия): широта 44.62 долгота 33.53 высота над уровнем моря 6 м.

В архиве по умолчанию представлена погода в Севастополе за последнюю неделю. Архивные данные за месяц целиком и за предыдущие месяцы, начиная с января 2011 года, Вы можете получить, выбрав интересующий диапазон дат из раскрывающегося списка и нажав кнопку "Ввод!".


*Определитесь, кто Вы:
робот инопланетянин человек

Внимание! Время в таблицах - всемирное. Для получения местного времени необходимо прибавить поправку, которая равна 3 ч.

Смотрите также архив погоды в соседних городах и на ближайших метеорологических станциях:

Погода в Херсонесском Маяке (город Севастополь, Россия) (13 км)
Погода в Почтовом (Крым, Россия) (41 км)
Погода на Ай-Петри (Крым, Россия) (47 км)
Погода в Ялте (Крым, Россия) (53 км)
Погода в Симферополе (Крым, Россия) (57 км)
Погода в Никитском саду (Крым, Россия) (58 км)
Погода в Симферополе город (Крым, Россия) (59 км)
Погода в Евпатории (Крым, Россия) (64 км)
Погода на Ангарском Перевале (Крым, Россия) (66 км)
Погода в Алуште (Крым, Россия) (69 км)

Пояснения к столбцам:

Ветер - указаны скорость ветра в м/с - средняя за 10 мин, порывы в срок и между сроками (в фигурных скобках) и направление, откуда дует ветер: С - северный, СВ - северо-восточный, В - восточный, ЮВ - юго-восточный, Ю - южный, ЮЗ - юго-западный, З - западный, СЗ - северо-западный.
Видимость - горизонтальная дальность видимости в метрах или километрах. При видимости от 1 до 10 км при отсутствии осадков обычно наблюдается дымка, при ухудшении видимости до 1 км и менее - туман. В сухую погоду видимость может ухудшаться дымом, пылью или мглою.
Явления - указаны атмосферные явления, наблюдавшиеся в срок или в последний час перед сроком; фигурными скобками обозначены явления, наблюдавшиеся между сроками (за 1-3 часа до срока); квадратными скобками обозначены град или гололедные отложения с указанием их диаметра в мм.
Облачность - указаны через наклонную черту общая и нижняя облачность в баллах и высота нижней границы облаков в метрах; квадратными скобками обозначены формы облаков: Ci - перистые, Cs - перисто-слоистые, Cc - перисто-кучевые, Ac - высококучевые, As - высокослоистые, Sc - слоисто-кучевые, Ns - слоисто-дождевые, Cu - кучевые, Cb - кучево-дождевые. Подробнее классификацию облаков см. в Атласе облаков (PDF).
T - Температура воздуха - температура, измеренная на высоте 2 м над землей.
Td - Температура точки росы - температура, при понижении до которой содержащийся в воздухе водяной пар достигнет насыщения.
f - Относительная влажность воздуха - влажноcть воздуха, измеренная на высоте 2 м над землей.
Te - Эффективная температура - температура, которую ощущает одетый по сезону человек в тени. Характеристика душности погоды. При расчете учитывается влияние влажности воздуха и скорости ветра на теплоощущения человека.
Tes - Эффективная температура на солнце - температура, которую ощущает человек, с поправкой на солнечный нагрев. Характеристика знойности погоды. Зависит от высоты солнца над горизонтом, облачности и скорости ветра. Ночью, в пасмурную погоду, а также при ветре 12 м/с и более поправка равна нулю.
P - Атмосферное давление - приведенное к уровню моря атмосферное давление.
Po - Атмосферное давление - измеренное на уровне метеостанции атмосферное давление.
Tmin - Минимальная температура - минимум температуры воздуха на высоте 2 м над землей.
Tmax - Максимальная температура - максимум температуры воздуха на высоте 2 м над землей.
R - Количество осадков - Количество выпавших осадков за период времени, мм. При наведении курсора мыши на число - период времени, за который выпало указанное количество осадков.
R24 - Количество осадков - Количество выпавших осадков за 24 часа, мм.
S - Снежный покров - Высота снежного покрова, см. При наведении курсора мыши на число - состояние снежного покрова и степень покрытия местности в баллах.